x

Diamond Shoals (41025) Wave Buoy

11:50 - Mon 26th Sep 2016 All times are EDT. -4 hours from GMT.

  • Sig Wave height 3.3ft
  • Swell Direction
  • Peak Period 8s
  • Average Period 5s
  • Wind
    4mph, 7mph gusts
  • Sea Temp 78°f
  • Luft Temp 77°f
  • Sea Pressure 1019.9mb
  • Diamond Shoals
  • Diamond Shoals

More Historic Weather Station data

Upgrade to MSW Pro to gain access to the past 30 days of data for over 8000 Wavebouys and Weather Stations around the globe.

Join Pro

Comparision Forecast

View Surf forecast
   
Mo 09/26 11:50 3.5ft 8s 5s 4 7 mph 1019.9mb 78f 77f
10:50 3.5ft 9s 5s 11 13 mph 1019.9mb 77f 76f
9:50 3.5ft 9s 5s 13 16 mph 1019.5mb 80f 75f
8:50 3.5ft 10s 4s 16 20 mph 1019.1mb 84f 75f
7:50 3.5ft 8s 4s 16 20 mph 1019.2mb 84f 74f
6:50 3.5ft 9s 5s 16 20 mph 1018.8mb 84f 74f
5:50 3.5ft 9s 5s 16 18 mph 1018.8mb 83f 74f
4:50 3.5ft 8s 5s 13 18 mph 1018.8mb 83f 74f
3:50 3ft 8s 5s 16 20 mph 1018.9mb 83f 74f
2:50 3.5ft 8s 5s 16 20 mph 1018.7mb 84f 74f
1:50 3.5ft 8s 5s 16 18 mph 1019.2mb 84f 74f
12:50 3ft 8s 5s 13 18 mph 1019.6mb 84f 74f
So 09/25 11:50 3.5ft 9s 5s 16 20 mph 1019.7mb 84f 74f
10:50 3.5ft 8s 5s 16 20 mph 1020.1mb 85f 74f
9:50 4ft 9s 5s 18 20 mph 1020.4mb 85f 74f
8:50 4ft 8s 5s 18 22 mph 1020mb 85f 74f
7:50 4.5ft 10s 5s 18 22 mph 1019.2mb 85f 73f
6:50 4.5ft 10s 5s 20 22 mph 1018.8mb 85f 73f
5:50 4.5ft 8s 5s 22 25 mph 1018.3mb 85f 73f
4:50 4.5ft 9s 5s 20 22 mph 1018.3mb 85f 73f
3:50 5ft 8s 5s 20 25 mph 1018.6mb 85f 74f
2:50 5ft 10s 5s 18 25 mph 1019.1mb 85f 74f
1:50 5ft 8s 5s 20 25 mph 1019.2mb 85f 74f
12:50 4.5ft 11s 5s 22 25 mph 1019.1mb 85f 74f
11:50 5.5ft 5s 5s 22 27 mph 1019.5mb 85f 74f
10:50 6ft 11s 5s 22 25 mph 1019.6mb 85f 73f
9:50 6ft 10s 6s 22 27 mph 1019.5mb 85f 71f
8:50 6ft 11s 6s 25 27 mph 1019.1mb 85f 75f
7:50 6ft 10s 7s 20 25 mph 1018.8mb 85f 76f
6:50 6ft 11s 7s 16 20 mph 1018mb 85f 76f
5:50 6ft 11s 7s 18 20 mph 1017.4mb 85f 76f
4:50 6ft 10s 7s 16 20 mph 1017mb 85f 76f
3:50 6.5ft 11s 7s 18 22 mph 1016.9mb 85f 76f
2:50 6ft 11s 7s 16 20 mph 1017.1mb 85f 77f
1:50 7ft 11s 8s 16 20 mph 1017.2mb 85f 77f
12:50 6ft 11s 7s 18 20 mph 1016.9mb 85f 77f
Sa 09/24 11:50 6.5ft 11s 8s 18 22 mph 1017.2mb 82f 77f
10:50 6ft 10s 8s 18 22 mph 1017.3mb 82f 76f
9:50 6ft 11s 8s 18 20 mph 1017.1mb 81f 77f
8:50 6ft 11s 9s 13 16 mph 1016.7mb 81f 79f
7:50 5.5ft 11s 9s 9 11 mph 1016.4mb 81f 79f
6:50 5.5ft 10s 9s 9
mph
1016.3mb 81f 79f
5:50 5.5ft 11s 9s 9 11 mph 1016.1mb 81f 80f
4:50 5ft 11s 9s 11
mph
1015.9mb 81f 80f
3:50 5ft 11s 9s 11
mph
1015.9mb 81f 79f
2:50 5ft 10s 9s 9 11 mph 1016.1mb 81f 79f
1:50 6ft 10s 9s 9 11 mph 1016.1mb 81f 78f
12:50 5ft 11s 9s 9 11 mph 1016.5mb 81f 78f
11:50 4.5ft 11s 8s 9 13 mph 1016.7mb 81f 77f
10:50 5ft 10s 8s 11 13 mph 1016.7mb 81f 77f
9:50 5ft 10s 7s 13 18 mph 1016.6mb 81f 77f
8:50 5ft 11s 8s 13 16 mph 1016.5mb 81f 77f
7:50 5ft 10s 8s 11 13 mph 1016.2mb 81f 76f
6:50 4ft 11s 7s 11 16 mph 1015.6mb 81f 76f
5:50 4.5ft 11s 8s 11 13 mph 1015.1mb 81f 76f
4:50 5ft 11s 8s 9 11 mph 1014.7mb 81f 76f
3:50 5ft 11s 8s 11 13 mph 1014.6mb 81f 77f
2:50 4.5ft 11s 8s 7 9 mph 1015mb 81f 77f
1:50 4.5ft 11s 7s 9 11 mph 1015.6mb 81f 77f
12:50 4ft 11s 7s 13 16 mph 1015.3mb 81f 77f
Fr 09/23 11:50 4.5ft 11s 8s 13 16 mph 1015.3mb 81f 78f
10:50 3.5ft 11s 8s 11 13 mph 1015.3mb 81f 78f
9:50 3.5ft 11s 8s 9 11 mph 1015.2mb 81f 78f
8:50 3.5ft 10s 7s 11
mph
1015.1mb 81f 78f
7:50 4ft 11s 7s 11 13 mph 1014.9mb 81f 78f
5:50 3.5ft 11s 7s 16 18 mph 1014.9mb 82f 78f
4:50 4ft 11s 8s 13 18 mph 1014.6mb 82f 79f
3:50 3.5ft 12s 7s 13 16 mph 1014.5mb 82f 79f
2:50 3.5ft 11s 8s 13 16 mph 1014.7mb 82f 79f
1:50 3.5ft 11s 8s 13 16 mph 1015.1mb 82f 78f
12:50 3.5ft 11s 8s 9
mph
1015.9mb 82f 79f
11:50 4ft 12s 8s 4 7 mph 1016.1mb 82f 79f
10:50 3.5ft 11s 8s 7 9 mph 1016.2mb 81f 79f
9:50 3ft 11s 8s 9
mph
1016.5mb 81f 79f
8:50 3ft 12s 8s 9 11 mph 1016mb 82f 79f
7:50 3.5ft 11s 8s 4
mph
1015.9mb 81f 79f
6:50 3ft 12s 8s 4 7 mph 1015.6mb 81f 77f
5:50 3.5ft 12s 8s 7 9 mph 1015.4mb 82f 77f
4:50 3.5ft 12s 8s 11 16 mph 1015.2mb 82f 78f
3:50 3ft 11s 8s 9 11 mph 1014.6mb 83f 80f
2:50 3ft 11s 8s 9 11 mph 1015mb 83f 80f
1:50 3ft 9s 8s 7
mph
1015.4mb 83f 80f
12:50 3.5ft 12s 8s 4 7 mph 1015.5mb 83f 80f
Do 09/22 11:50 3.5ft 11s 8s 7 9 mph 1015.6mb 83f 81f
10:50 3ft 10s 7s 2 4 mph 1015.8mb 84f 81f
9:50 3.5ft 11s 7s 9 11 mph 1016mb 85f 80f
8:50 3.5ft 8s 7s 4 11 mph 1015.9mb 85f 81f
7:50 3.5ft 9s 7s 9 11 mph 1015.2mb 86f 81f
6:50 3.5ft 8s 7s 4 7 mph 1015mb 86f 82f
5:50 3.5ft 11s 7s 4 7 mph 1015.2mb 86f 83f